This demonstration page uses our WeatherBlox Daily Observations layout. Learn more.

Left ArrowRight Arrow

41.86663, -103.66717

Hourly Observations for June 25, 2021

Temp ( °F °C ) Dew Point ( °F °C ) Humidity (%) Winds ( mph kmh ) Pressure ( in mb ) Visibility ( mi km ) Precip ( " mm )
12:53 am 00:53 Clear 62 16.7 56 13.3 80 80 ENE 12 19 29.85 1011 10 16 N/A
1:53 am 01:53 Clear 61 16.1 56 13.3 84 84 W 5 7 29.85 1011 10 16 N/A
2:53 am 02:53 Mostly Cloudy 61 16.1 56 13.3 84 84 WNW 3 6 29.85 1011 10 16 N/A
3:53 am 03:53 Cloudy 62 16.7 57 13.9 84 84 NW 5 7 29.85 1011 10 16 N/A
4:53 am 04:53 Cloudy with Light Rain 61 16.1 58 14.4 90 90 NW 5 7 29.85 1011 9 14 0.01 0.25
5:53 am 05:53 Cloudy 61 16.1 58 14.4 90 90 N N/A 29.85 1011 10 16 0.01 0.25
6:53 am 06:53 Cloudy with Light Rain 62 16.7 58 14.4 86 86 N N/A 29.85 1011 10 16 0.00 0.00
7:53 am 07:53 Cloudy with Light Rain 63 17.2 58 14.4 84 84 N N/A 29.87 1012 10 16 0.00 0.00
8:53 am 08:53 Cloudy with Light Rain 64 17.8 59 15 84 84 SSE 5 7 29.88 1012 10 16 0.00 0.00
9:24 am 09:24 Cloudy with Light Rain 64 17.8 59 15 84 84 S 3 6 29.83 1010 10 16 0.00 0.00
9:53 am 09:53 Mostly Cloudy 65 18.3 58 14.4 78 78 N N/A 29.89 1012 10 16 0.00 0.00
10:53 am 10:53 Cloudy 67 19.4 59 15 76 76 W 3 6 29.88 1012 10 16 N/A
11:14 am 11:14 Mostly Cloudy 69 20.6 58 14.4 68 68 NW 12 19 29.78 1009 10 16 N/A
11:24 am 11:24 Partly Cloudy 71 21.7 58 14.4 63 63 W 6 9 29.76 1008 10 16 N/A
11:31 am 11:31 Mostly Cloudy 71 21.7 58 14.4 63 63 NW 10 17 29.76 1008 10 16 N/A
11:45 am 11:45 Mostly Cloudy 71 21.7 57 13.9 61 61 WNW 12 19 29.76 1008 10 16 N/A
11:53 am 11:53 Partly Cloudy 71 21.7 58 14.4 63 63 WNW 7 11 29.86 1011 10 16 N/A
12:53 pm 12:53 Partly Cloudy 72 22.2 58 14.4 61 61 WNW 13 20 29.85 1011 10 16 N/A
1:53 pm 13:53 Partly Cloudy 73 22.8 57 13.9 57 57 W 15 24 29.85 1011 10 16 N/A
2:53 pm 14:53 Mostly Sunny 73 22.8 57 13.9 57 57 WNW 16 26 29.84 1011 10 16 N/A
3:53 pm 15:53 Mostly Cloudy 71 21.7 56 13.3 59 59 N 21 33 29.86 1011 10 16 N/A
4:53 pm 16:53 Mostly Cloudy 66 18.9 55 12.8 68 68 NNW 21 33 29.88 1012 10 16 N/A
5:53 pm 17:53 Cloudy 66 18.9 54 12.2 65 65 N 16 26 29.88 1012 10 16 N/A
6:53 pm 18:53 Cloudy 66 18.9 54 12.2 65 65 N 12 19 29.90 1012 10 16 N/A
7:53 pm 19:53 Partly Cloudy 65 18.3 54 12.2 68 68 N 7 11 29.91 1013 10 16 N/A
8:53 pm 20:53 Cloudy 64 17.8 54 12.2 70 70 NNW 7 11 29.92 1013 10 16 N/A
9:53 pm 21:53 Cloudy 64 17.8 54 12.2 70 70 NNW 6 9 29.94 1014 10 16 N/A
10:53 pm 22:53 Cloudy 62 16.7 56 13.3 80 80 NW 5 7 29.94 1014 10 16 0.01 0.25
11:53 pm 23:53 Cloudy 62 16.7 56 13.3 80 80 NW 5 7 29.93 1014 10 16 0.00 0.00

Powered by AerisWeather